Benson, MN

7:09 AM CST on February 23, 2017 (GMT -0600)
Benson Municipal

Weather History for KBBB - June, 2013

Change the Weather History Date:

Thursday, June 13, 2013

  Actual Average Record
Temperature  
Mean Temperature 63 °F -  
Max Temperature 78 °F 80 °F 96 °F (1987)
Min Temperature 48 °F 56 °F 40 °F (1969)
Degree Days  
Heating Degree Days 2    
Growing Degree Days 13 (Base 50)    
Moisture  
Dew Point 52 °F    
Average Humidity 65    
Maximum Humidity 100    
Minimum Humidity 36    
Precipitation  
Precipitation 0.00 in - - ()
Sea Level Pressure  
Sea Level Pressure 30.08 in    
Wind  
Wind Speed 5 mph (ENE)    
Max Wind Speed 8 mph    
Max Gust Speed -    
Visibility 10 miles    
Events      
Averages and records for this station are not official NWS values.
T = Trace of Precipitation, MM = Missing Value Source: NWS Daily Summary

Daily Weather History Graph

Daily Weather History Graph

Search for Another Location

Airport or City:

Trip Planner

Search our weather history database for the weather conditions in past years. The results will help you decide how hot, cold, wet, or windy it might be!

Date:

Astronomy

Jun. 13, 2013 Rise Set
Actual Time 5:34 AM CDT 9:11 PM CDT
Civil Twilight 4:56 AM CDT 9:49 PM CDT
Nautical Twilight 4:06 AM CDT 10:39 PM CDT
Astronomical Twilight 2:59 AM CDT 11:46 PM CDT
Moon 10:22 AM CDT (6/13) No Moon Set
Length of Visible Light 16h 53m
Length of Day
15h 37m
Waxing Crescent, 22% of the Moon is Illuminated
Jun 13
Waxing Crescent
Jun 16
First Quarter
Jun 23
Full
Jun 29
Last Quarter
Jul 8
New

Hourly Weather History & Observations

Time (CDT) Temp. Dew Point Humidity Pressure Visibility Wind Dir Wind Speed Gust Speed Precip Events Conditions
12:13 AM 57.2 °F 51.8 °F 82% 30.04 in 10.0 mi North 8.1 mph - N/A   Scattered Clouds
12:32 AM 53.6 °F 51.8 °F 94% 30.04 in 10.0 mi North 5.8 mph - N/A   Clear
12:52 AM 57.2 °F 51.8 °F 82% 30.04 in 10.0 mi NNE 4.6 mph - N/A   Clear
1:13 AM 53.6 °F 50.0 °F 88% 30.05 in 10.0 mi North 3.5 mph - N/A   Clear
1:32 AM 51.8 °F 50.0 °F 94% 30.05 in 10.0 mi North 5.8 mph - N/A   Clear
1:53 AM 51.8 °F 48.2 °F 88% 30.06 in 10.0 mi North 6.9 mph - N/A   Clear
2:13 AM 51.8 °F 48.2 °F 88% 30.07 in 10.0 mi North 6.9 mph - N/A   Clear
2:32 AM 51.8 °F 50.0 °F 94% 30.07 in 10.0 mi North 3.5 mph - N/A   Clear
2:53 AM 50.0 °F 48.2 °F 94% 30.07 in 10.0 mi NNE 3.5 mph - N/A   Clear
3:13 AM 51.8 °F 50.0 °F 94% 30.07 in 10.0 mi Calm Calm - N/A   Clear
3:32 AM 50.0 °F 48.2 °F 94% 30.06 in 10.0 mi NNE 4.6 mph - N/A   Clear
3:53 AM 51.8 °F 48.2 °F 88% 30.07 in 10.0 mi North 4.6 mph - N/A   Clear
4:12 AM 51.8 °F 48.2 °F 88% 30.07 in 10.0 mi North 4.6 mph - N/A   Clear
4:32 AM 50.0 °F 48.2 °F 94% 30.07 in 10.0 mi North 5.8 mph - N/A   Clear
4:53 AM 50.0 °F 48.2 °F 94% 30.09 in 10.0 mi North 4.6 mph - N/A   Clear
5:12 AM 48.2 °F 46.4 °F 93% 30.10 in 10.0 mi North 6.9 mph - N/A   Clear
5:32 AM 48.2 °F 48.2 °F 100% 30.11 in 10.0 mi North 4.6 mph - N/A   Clear
5:53 AM 48.2 °F 48.2 °F 100% 30.11 in 10.0 mi NNE 4.6 mph - N/A   Clear
6:12 AM 51.8 °F 48.2 °F 88% 30.11 in 10.0 mi NNE 4.6 mph - N/A   Clear
6:33 AM 53.6 °F 51.8 °F 94% 30.11 in 10.0 mi NNE 3.5 mph - N/A   Clear
6:53 AM 53.6 °F 51.8 °F 94% 30.10 in 10.0 mi NNE 4.6 mph - N/A   Clear
7:12 AM 53.6 °F 51.8 °F 94% 30.10 in 10.0 mi NE 4.6 mph - N/A   Clear
7:33 AM 57.2 °F 53.6 °F 88% 30.10 in 10.0 mi North 4.6 mph - N/A   Clear
7:53 AM 60.8 °F 53.6 °F 77% 30.10 in 10.0 mi NNE 4.6 mph - N/A   Clear
8:12 AM 62.6 °F 53.6 °F 72% 30.11 in 10.0 mi NE 5.8 mph - N/A   Clear
8:33 AM 64.4 °F 55.4 °F 73% 30.11 in 10.0 mi ENE 3.5 mph - N/A   Clear
8:52 AM 66.2 °F 55.4 °F 68% 30.11 in 10.0 mi East 8.1 mph - N/A   Clear
9:12 AM 68.0 °F 55.4 °F 64% 30.12 in 10.0 mi East 3.5 mph - N/A   Clear
9:33 AM 69.8 °F 53.6 °F 56% 30.12 in 10.0 mi East 5.8 mph - N/A   Clear
9:53 AM 66.2 °F 53.6 °F 64% 30.13 in 10.0 mi East 3.5 mph - N/A   Clear
10:12 AM 69.8 °F 55.4 °F 60% 30.13 in 10.0 mi Calm Calm - N/A   Clear
10:33 AM 71.6 °F 53.6 °F 53% 30.13 in 10.0 mi SSE 3.5 mph - N/A   Clear
10:53 AM 71.6 °F 53.6 °F 53% 30.13 in 10.0 mi Calm Calm - N/A   Clear
11:12 AM 71.6 °F 53.6 °F 53% 30.12 in 10.0 mi NE 5.8 mph - N/A   Clear
11:33 AM 71.6 °F 51.8 °F 50% 30.13 in 10.0 mi East 5.8 mph - N/A   Clear
11:52 AM 73.4 °F 51.8 °F 47% 30.13 in 10.0 mi East 5.8 mph - N/A   Clear
12:13 PM 73.4 °F 53.6 °F 50% 30.13 in 10.0 mi ESE 3.5 mph - N/A   Clear
12:33 PM 73.4 °F 51.8 °F 47% 30.12 in 10.0 mi East 3.5 mph - N/A   Clear
12:52 PM 73.4 °F 53.6 °F 50% 30.12 in 10.0 mi East 4.6 mph - N/A   Clear
1:13 PM 75.2 °F 51.8 °F 44% 30.11 in 10.0 mi NE 5.8 mph - N/A   Clear
1:33 PM 75.2 °F 53.6 °F 47% 30.11 in 10.0 mi NNE 3.5 mph - N/A   Clear
1:52 PM 75.2 °F 51.8 °F 44% 30.11 in 10.0 mi Calm Calm - N/A   Clear
2:13 PM 75.2 °F 51.8 °F 44% 30.10 in 10.0 mi ENE 3.5 mph - N/A   Clear
2:33 PM 77.0 °F 51.8 °F 41% 30.10 in 10.0 mi NE 8.1 mph - N/A   Clear
2:52 PM 77.0 °F 51.8 °F 41% 30.09 in 10.0 mi ENE 6.9 mph - N/A   Clear
3:13 PM 77.0 °F 53.6 °F 44% 30.08 in 10.0 mi East 6.9 mph - N/A   Clear
3:33 PM 77.0 °F 51.8 °F 41% 30.08 in 10.0 mi Calm Calm - N/A   Clear
3:52 PM 78.8 °F 50.0 °F 36% 30.08 in 10.0 mi East 5.8 mph - N/A   Clear
4:13 PM 78.8 °F 51.8 °F 39% 30.08 in 10.0 mi ENE 6.9 mph - N/A   Clear
4:32 PM 78.8 °F 51.8 °F 39% 30.07 in 10.0 mi SSE 4.6 mph - N/A   Clear
4:52 PM 77.0 °F 51.8 °F 41% 30.07 in 10.0 mi ESE 4.6 mph - N/A   Scattered Clouds
5:13 PM 78.8 °F 51.8 °F 39% 30.07 in 10.0 mi SSE 5.8 mph - N/A   Clear
5:32 PM 78.8 °F 53.6 °F 42% 30.06 in 10.0 mi SSE 8.1 mph - N/A   Scattered Clouds
5:52 PM 78.8 °F 51.8 °F 39% 30.05 in 10.0 mi East 5.8 mph - N/A   Scattered Clouds
6:13 PM 78.8 °F 51.8 °F 39% 30.05 in 10.0 mi ESE 6.9 mph - N/A   Clear
6:32 PM 77.0 °F 53.6 °F 44% 30.05 in 10.0 mi SE 5.8 mph - N/A   Clear
6:53 PM 77.0 °F 53.6 °F 44% 30.05 in 10.0 mi ESE 3.5 mph - N/A   Scattered Clouds
7:13 PM 75.2 °F 53.6 °F 47% 30.05 in 10.0 mi SE 4.6 mph - N/A   Mostly Cloudy
7:32 PM 75.2 °F 53.6 °F 47% 30.05 in 10.0 mi South 8.1 mph - N/A   Mostly Cloudy
7:53 PM 75.2 °F 53.6 °F 47% 30.04 in 10.0 mi SSE 6.9 mph - N/A   Scattered Clouds
8:13 PM 73.4 °F 53.6 °F 50% 30.04 in 10.0 mi SSE 5.8 mph - N/A   Clear
8:32 PM 73.4 °F 53.6 °F 50% 30.04 in 10.0 mi SE 3.5 mph - N/A   Clear
8:53 PM 71.6 °F 51.8 °F 50% 30.04 in 10.0 mi SE 4.6 mph - N/A   Clear
9:12 PM 69.8 °F 53.6 °F 56% 30.04 in 10.0 mi SE 3.5 mph - N/A   Clear
9:32 PM 69.8 °F 51.8 °F 53% 30.04 in 10.0 mi SE 4.6 mph - N/A   Clear
9:53 PM 68.0 °F 51.8 °F 56% 30.04 in 10.0 mi ESE 4.6 mph - N/A   Clear
10:12 PM 68.0 °F 53.6 °F 60% 30.04 in 10.0 mi ESE 4.6 mph - N/A   Clear
10:33 PM 66.2 °F 53.6 °F 64% 30.05 in 10.0 mi Calm Calm - N/A   Clear
10:53 PM 66.2 °F 53.6 °F 64% 30.05 in 10.0 mi ESE 3.5 mph - N/A   Clear
11:12 PM 62.6 °F 53.6 °F 72% 30.05 in 10.0 mi ESE 3.5 mph - N/A   Clear
11:33 PM 64.4 °F 55.4 °F 73% 30.04 in 10.0 mi Calm Calm - N/A   Clear
11:53 PM 64.4 °F 55.4 °F 73% 30.05 in 10.0 mi SE 5.8 mph - N/A   Clear